DW7792 Weather Reports


time (UTC)temp
C
wind
direction
speed
KPH
gust
KPH
rain 1hr
cm
rain 24hr
cm
rain mn
cm
humidity
%
barometer
mb
20260507220040 11 213 4.8 17.7 0.00 2.16 2.16 98 1001.9
20260507214545 11 230 17.7 25.7 0.00 2.16 2.16 98 1001.4
20260507213045 11 156 9.7 20.9 0.00 2.16 2.16 98 1001.8
20260507211548 11 145 6.4 16.1 0.00 2.16 2.16 98 1002.3
20260507210041 11 129 3.2 17.7 0.05 2.16 2.16 98 1002.2
20260507204539 10 122 14.5 24.1 0.08 2.16 2.16 98 1001.4
20260507203036 10 119 14.5 25.7 0.15 2.16 2.16 98 1001.5
20260507201543 10 117 16.1 27.4 0.28 2.16 2.16 98 1001.4
20260507200038 11 123 16.1 27.4 0.43 2.11 2.11 98 1002.0
20260507194531 11 113 11.3 16.1 0.56 2.08 2.08 98 1002.7
20260507193034 11 149 12.9 19.3 0.66 2.01 2.01 98 1002.7
20260507191528 11 166 9.7 17.7 0.71 1.88 1.88 97 1003.2
20260507190026 11 158 11.3 22.5 0.79 1.70 1.70 97 1003.6
20260507184525 11 193 16.1 25.7 0.89 1.52 1.52 97 1003.9
20260507183023 11 205 16.1 29.0 0.97 1.32 1.32 97 1004.4
20260507181523 11 179 14.5 22.5 0.97 1.14 1.14 98 1004.7
20260507180037 11 186 12.9 20.9 0.81 0.91 0.91 98 1004.7
20260507174525 11 185 14.5 25.7 0.56 0.64 0.64 98 1005.0
20260507173024 11 205 16.1 27.4 0.30 0.33 0.33 97 1005.1
20260507171516 10 171 14.5 32.2 0.15 0.15 0.15 97 1004.6
20260507170031 10 190 22.5 38.6 0.08 0.10 0.10 97 1004.5
20260507164512 10 142 19.3 32.2 0.05 0.08 0.08 97 1004.9
20260507161507 10 155 19.3 38.6 0.00 0.03 0.03 96 1005.6
20260507160004 10 141 22.5 41.8 0.00 0.03 0.03 96 1006.0
20260507154504 11 150 25.7 40.2 0.00 0.03 0.03 95 1006.4
20260507153107 11 157 24.1 43.5 0.00 0.03 0.03 96 1007.0
20260507144552 12 165 22.5 37.0 0.00 0.03 0.03 94 1008.2
20260507143103 12 157 25.7 45.1 0.00 0.03 0.03 94 1008.2
20260507141550 12 144 25.7 37.0 0.00 0.03 0.03 94 1008.3
20260507140047 12 174 22.5 37.0 0.00 0.03 0.03 95 1008.7
20260507134546 12 166 22.5 40.2 0.00 0.03 0.03 95 1008.8
20260507133048 11 160 19.3 38.6 0.00 0.03 0.03 95 1009.3
20260507131549 12 167 24.1 46.7 0.00 0.03 0.03 95 1009.2
20260507130058 12 172 24.1 40.2 0.00 0.03 0.03 95 1009.3
20260507124546 12 170 27.4 49.9 0.00 0.03 0.03 95 1009.2
20260507123041 12 154 24.1 45.1 0.00 0.03 0.03 96 1009.4
20260507121540 12 170 25.7 40.2 0.03 0.03 0.03 96 1009.2
20260507120037 12 164 22.5 35.4 0.03 0.03 0.03 96 1009.8
20260507114536 12 174 25.7 41.8 0.03 0.03 0.03 97 1009.7
20260507113035 12 154 22.5 38.6 0.03 0.03 0.03 96 1010.1
20260507111533 12 180 20.9 32.2 0.00 0.00 0.00 96 1010.0
20260507110033 12 171 22.5 41.8 0.00 0.00 0.00 97 1009.9
20260507104531 12 161 25.7 38.6 0.00 0.00 0.00 97 1010.0
20260507103034 11 173 17.7 40.2 0.00 0.00 0.00 97 1010.1
20260507101529 11 167 27.4 40.2 0.00 0.00 0.00 97 1010.0
20260507100026 11 157 25.7 38.6 0.00 0.00 0.00 97 1010.4
20260507094523 11 166 19.3 32.2 0.00 0.00 0.00 98 1010.6
20260507093020 11 165 20.9 29.0 0.00 0.00 0.00 98 1010.9
20260507091524 11 168 17.7 29.0 0.00 0.00 0.00 98 1011.3
20260507090017 11 137 9.7 19.3 0.00 0.00 0.00 98 1010.9
20260507084533 10 157 12.9 20.9 0.00 0.00 0.00 98 1011.1
20260507083012 10 137 12.9 19.3 0.00 0.00 0.00 98 1011.7
20260507081513 10 154 14.5 25.7 0.00 0.00 0.00 98 1011.9
20260507080010 10 170 12.9 20.9 0.00 0.00 0.00 97 1012.1
20260507074510 10 153 14.5 24.1 0.00 0.00 0.00 97 1011.9
20260507073007 10 119 12.9 19.3 0.00 0.00 0.00 97 1011.7
20260507071505 10 141 9.7 17.7 0.00 0.00 0.00 97 1012.3
20260507070002 10 105 9.7 17.7 0.00 0.00 0.00 97 1012.9
20260507064501 10 129 8.0 19.3 0.00 0.00 0.00 97 1013.2
20260507063059 10 101 14.5 24.1 0.00 0.00 0.00 97 1013.3
20260507061557 10 107 11.3 20.9 0.00 0.00 0.00 97 1013.3
20260507060156 10 125 14.5 22.5 0.00 0.00 0.00 97 1013.3
20260507054611 10 118 12.9 20.9 0.00 0.00 0.00 97 1013.7
20260507053102 10 108 9.7 17.7 0.00 0.00 0.00 97 1014.1
20260507051554 10 117 12.9 17.7 0.00 0.00 0.00 97 1014.4
20260507050115 10 109 9.7 16.1 0.00 0.00 0.00 96 1014.8
20260507044551 10 111 11.3 16.1 0.00 0.00 0.00 96 1015.2
20260507043040 10 109 9.7 16.1 0.00 0.00 0.00 96 1015.5
20260507041542 10 122 12.9 16.1 0.00 0.00 0.00 96 1015.8
20260507040039 10 109 9.7 17.7 0.00 0.00 0.00 96 1016.0
20260507034532 10 109 12.9 19.3 0.00 0.00 0.00 96 1016.4
20260507033029 10 124 9.7 16.1 0.00 0.00 0.00 96 1016.7
20260507031528 10 116 9.7 16.1 0.00 0.00 0.00 96 1017.0
20260507030024 9 114 11.3 19.3 0.00 0.00 0.00 95 1017.1
20260507024522 10 116 14.5 19.3 0.00 0.00 0.00 95 1017.3
20260507023019 10 117 14.5 17.7 0.00 0.00 0.00 94 1017.3
20260507021516 10 112 9.7 16.1 0.00 0.00 0.00 94 1017.4
20260507020017 10 115 9.7 16.1 0.00 0.00 0.00 94 1017.6
20260507014512 10 127 12.9 20.9 0.00 0.00 0.00 93 1017.8
20260507013010 10 99 11.3 19.3 0.00 0.00 0.00 93 1017.7
20260507011509 11 99 11.3 17.7 0.00 0.00 0.00 93 1017.8
20260507010011 11 102 16.1 24.1 0.00 0.00 0.00 92 1017.9
20260507004507 11 97 14.5 17.7 0.00 0.00 0.00 92 1018.1
20260507003005 11 92 12.9 22.5 0.00 0.00 0.00 91 1018.1
20260507001504 11 106 16.1 24.1 0.00 0.00 0.00 90 1017.9
20260507000004 11 94 16.1 20.9 0.00 0.00 0.00 89 1018.0
20260506234501 11 129 14.5 22.5 0.00 0.00 0.00 88 1018.2
20260506233100 11 111 16.1 20.9 0.00 0.00 0.00 87 1017.9
20260506231556 12 150 12.9 22.5 0.00 0.00 0.00 86 1018.1
20260506224555 12 162 11.3 32.2 0.00 0.00 0.00 85 1017.8
20260506223055 12 124 16.1 29.0 0.00 0.00 0.00 84 1017.6
20260506221602 12 144 12.9 20.9 0.00 0.00 0.00 84 1017.5